EW7351 Weather Reports


time (UTC)temp
C
wind
direction
speed
KPH
gust
KPH
rain 1hr
cm
rain 24hr
cm
rain mn
cm
humidity
%
barometer
mb
20260507061246 13 83 0.0 6.4 0.00 0.00 0.00 80 1015.8
20260507060743 13 68 0.0 6.4 0.00 0.00 0.00 80 1015.7
20260507060510 13 9 0.0 8.0 0.00 0.00 0.00 79 1015.6
20260507055936 13 338 0.0 8.0 0.00 0.00 0.00 79 1015.7
20260507055210 13 82 0.0 6.4 0.00 0.00 0.00 79 1015.7
20260507054708 13 41 0.0 8.0 0.00 0.00 0.00 78 1015.7
20260507054206 13 59 0.0 8.0 0.00 0.00 0.00 78 1015.7
20260507053638 13 359 1.6 9.7 0.00 0.00 0.00 77 1015.7
20260507053111 13 63 1.6 9.7 0.00 0.00 0.00 77 1015.7
20260507052607 13 340 1.6 6.4 0.00 0.00 0.00 77 1015.8
20260507052103 13 89 1.6 6.4 0.00 0.00 0.00 77 1015.9
20260507051554 13 82 1.6 6.4 0.00 0.00 0.00 77 1015.9
20260507051053 13 46 1.6 4.8 0.00 0.00 0.00 77 1015.9
20260507050524 13 304 1.6 11.3 0.00 0.00 0.00 77 1015.9
20260507050022 14 14 1.6 11.3 0.00 0.00 0.00 77 1015.8
20260507045502 14 339 1.6 9.7 0.00 0.00 0.00 78 1015.8
20260507045002 14 60 1.6 11.3 0.00 0.00 0.00 77 1015.8
20260507044443 14 60 1.6 11.3 0.00 0.00 0.00 77 1015.8
20260507043941 14 336 1.6 11.3 0.00 0.00 0.00 77 1016.0
20260507043417 14 316 1.6 6.4 0.00 0.00 0.00 77 1015.9
20260507042850 14 264 1.6 4.8 0.00 0.00 0.00 77 1016.0
20260507042345 14 333 0.0 4.8 0.00 0.00 0.00 76 1016.2
20260507041843 14 16 0.0 4.8 0.00 0.00 0.00 76 1016.2
20260507041342 15 6 0.0 4.8 0.00 0.00 0.00 76 1016.3
20260507040814 15 351 1.6 8.0 0.00 0.00 0.00 76 1016.4
20260507040256 15 29 1.6 8.0 0.00 0.00 0.00 75 1016.3
20260507035734 15 329 3.2 9.7 0.00 0.00 0.00 75 1016.3
20260507035215 15 43 3.2 12.9 0.00 0.00 0.00 75 1016.3
20260507034718 15 6 3.2 12.9 0.00 0.00 0.00 75 1016.2
20260507034200 15 41 4.8 14.5 0.00 0.00 0.00 75 1016.3
20260507033643 15 36 4.8 14.5 0.00 0.00 0.00 75 1016.3
20260507033126 15 358 4.8 12.9 0.00 0.00 0.00 75 1016.1
20260507032628 15 359 4.8 11.3 0.00 0.00 0.00 75 1016.0
20260507032110 15 44 4.8 12.9 0.00 0.00 0.00 75 1015.9
20260507031553 15 12 3.2 11.3 0.00 0.00 0.00 75 1015.9
20260507031239 15 5 3.2 8.0 0.00 0.00 0.00 75 1015.9
20260507030505 15 0 3.2 9.7 0.00 0.00 0.00 75 1015.8
20260507030158 15 8 4.8 14.5 0.00 0.00 0.00 75 1015.6
20260507025433 15 324 4.8 14.5 0.00 0.00 0.00 75 1015.5
20260507025213 15 61 3.2 11.3 0.00 0.00 0.00 76 1015.4
20260507025118 15 10 3.2 9.7 0.00 0.00 0.00 76 1015.4
20260507023910 15 335 1.6 9.7 0.00 0.00 0.00 77 1015.3
20260507023344 15 345 1.6 8.0 0.00 0.00 0.00 77 1015.2
20260507022820 15 103 1.6 8.0 0.00 0.00 0.00 77 1015.2
20260507022255 15 80 1.6 8.0 0.00 0.00 0.00 77 1014.9
20260507021734 15 70 3.2 11.3 0.00 0.00 0.00 77 1014.9
20260507021450 15 68 3.2 11.3 0.00 0.00 0.00 77 1014.8
20260507020729 15 27 3.2 14.5 0.00 0.00 0.00 78 1014.8
20260507020203 15 68 4.8 14.5 0.00 0.00 0.00 78 1014.7
20260507015858 15 26 4.8 20.9 0.00 0.00 0.00 78 1014.6
20260507015111 15 323 3.2 12.9 0.00 0.00 0.00 78 1014.5
20260507014607 15 76 4.8 17.7 0.00 0.00 0.00 77 1014.4
20260507014103 15 335 6.4 17.7 0.00 0.00 0.00 77 1014.2
20260507013822 15 34 6.4 16.1 0.00 0.00 0.00 77 1014.1
20260507013052 15 24 4.8 16.1 0.00 0.00 0.00 77 1014.0
20260507012548 15 323 4.8 16.1 0.00 0.00 0.00 78 1014.0
20260507012050 15 15 3.2 16.1 0.00 0.00 0.00 78 1013.8
20260507011523 15 19 4.8 12.9 0.00 0.00 0.00 78 1013.7
20260507011239 15 1 3.2 12.9 0.00 0.00 0.00 78 1013.6
20260507010516 15 1 3.2 12.9 0.00 0.00 0.00 78 1013.5
20260507010208 15 25 4.8 14.5 0.00 0.00 0.00 78 1013.6
20260507005706 15 337 4.8 14.5 0.00 0.00 0.00 79 1013.6
20260507004941 15 354 3.2 11.3 0.00 0.00 0.00 79 1013.6
20260507004703 15 6 1.6 6.4 0.00 0.00 0.00 80 1013.6
20260507003914 15 286 0.0 4.8 0.00 0.00 0.00 80 1013.4
20260507003345 15 295 1.6 6.4 0.00 0.00 0.00 80 1013.4
20260507002844 15 38 1.6 6.4 0.00 0.00 0.00 80 1013.3
20260507002317 15 338 1.6 6.4 0.00 0.00 0.00 79 1013.3
20260507001813 15 67 1.6 6.4 0.00 0.00 0.00 79 1013.3
20260507001309 15 63 3.2 12.9 0.00 0.00 0.00 79 1013.2
20260507000807 15 11 4.8 14.5 0.00 0.00 0.00 78 1013.0
20260507000306 15 296 4.8 14.5 0.00 0.00 0.00 78 1013.0
20260506235741 15 342 4.8 14.5 0.00 0.00 0.00 78 1012.9
20260506235215 15 322 3.2 9.7 0.00 0.00 0.00 78 1013.1
20260506234650 15 79 1.6 11.3 0.00 0.00 0.00 78 1013.1
20260506234416 15 1 1.6 11.3 0.00 0.00 0.00 77 1013.1
20260506233647 15 359 4.8 17.7 0.00 0.00 0.00 77 1013.1
20260506233150 15 352 4.8 17.7 0.00 0.00 0.00 76 1013.0
20260506232646 15 39 3.2 14.5 0.00 0.00 0.00 77 1012.9
20260506232149 15 357 4.8 12.9 0.00 0.00 0.00 77 1012.8
20260506231619 15 302 4.8 14.5 0.00 0.00 0.00 76 1012.7
20260506231118 15 344 4.8 11.3 0.00 0.00 0.00 77 1012.7
20260506230614 15 24 4.8 12.9 0.00 0.00 0.00 77 1012.8
20260506230337 15 341 4.8 9.7 0.00 0.00 0.00 78 1012.4
20260506225607 15 79 4.8 12.9 0.00 0.00 0.00 78 1012.4
20260506225107 15 335 3.2 9.7 0.00 0.00 0.00 78 1012.5
20260506224537 15 4 3.2 9.7 0.00 0.00 0.00 78 1012.7
20260506224036 15 36 4.8 12.9 0.00 0.00 0.00 78 1012.8
20260506223512 14 327 6.4 14.5 0.00 0.00 0.00 78 1012.7
20260506222941 14 8 6.4 14.5 0.00 0.00 0.00 78 1012.7
20260506222439 14 58 6.4 16.1 0.00 0.00 0.00 78 1012.7
20260506221915 14 30 6.4 16.1 0.00 0.00 0.00 78 1012.6
20260506221352 14 307 6.4 16.1 0.00 0.00 0.00 79 1012.4
20260506221112 14 27 6.4 17.7 0.00 0.00 0.00 79 1012.0
20260506220349 14 13 6.4 17.7 0.00 0.00 0.00 79 1012.0
20260506215849 14 314 4.8 12.9 0.00 0.00 0.00 79 1012.2
20260506215351 15 46 3.2 11.3 0.00 0.00 0.00 79 1012.2
20260506214826 15 36 3.2 11.3 0.00 0.00 0.00 77 1012.3
20260506214257 15 328 3.2 12.9 0.00 0.00 0.00 77 1012.1
20260506214023 15 22 4.8 12.9 0.00 0.00 0.00 75 1012.5
20260506213517 15 300 4.8 14.5 0.00 0.00 0.00 73 1012.3
20260506212751 15 4 3.2 14.5 0.00 0.00 0.00 73 1012.2
20260506212222 15 351 3.2 9.7 0.00 0.00 0.00 73 1012.2
20260506211718 15 7 3.2 9.7 0.00 0.00 0.00 73 1012.3
20260506211151 15 38 3.2 9.7 0.00 0.00 0.00 74 1012.4
20260506210645 15 55 4.8 9.7 0.00 0.00 0.00 74 1012.2
20260506210406 15 316 4.8 14.5 0.00 0.00 0.00 73 1012.5
20260506205635 15 330 4.8 14.5 0.00 0.00 0.00 73 1012.5
20260506205133 15 341 4.8 14.5 0.00 0.00 0.00 74 1012.4
20260506204832 15 11 6.4 14.5 0.00 0.00 0.00 74 1012.6
20260506204039 15 353 6.4 12.9 0.00 0.00 0.00 73 1012.6
20260506203538 15 65 4.8 12.9 0.00 0.00 0.00 73 1012.7
20260506203013 15 23 3.2 12.9 0.00 0.00 0.00 75 1012.6
20260506202702 15 23 4.8 14.5 0.00 0.00 0.00 76 1012.7
20260506201942 15 29 4.8 14.5 0.00 0.00 0.00 76 1012.9
20260506201639 15 35 3.2 11.3 0.00 0.00 0.00 76 1013.1
20260506201111 15 309 3.2 9.7 0.00 0.00 0.00 75 1013.1
20260506200344 15 13 3.2 11.3 0.00 0.00 0.00 75 1013.4
20260506195841 15 44 4.8 11.3 0.00 0.00 0.00 74 1013.2
20260506195337 15 51 4.8 11.3 0.00 0.00 0.00 76 1012.8
20260506194831 15 31 3.2 11.3 0.00 0.00 0.00 79 1012.6
20260506194329 14 315 3.2 8.0 0.00 0.00 0.00 80 1012.7
20260506194247 14 18 3.2 8.0 0.00 0.00 0.00 79 1013.0
20260506193259 13 352 3.2 8.0 0.00 0.00 0.00 79 1013.0
20260506192758 13 14 1.6 9.7 0.00 0.00 0.00 79 1013.3
20260506192253 13 40 1.6 9.7 0.00 0.00 0.00 80 1013.5
20260506191752 13 315 3.2 11.3 0.00 0.00 0.00 80 1013.5
20260506191225 13 334 3.2 11.3 0.00 0.00 0.00 79 1013.4
20260506190726 13 15 3.2 9.7 0.00 0.00 0.00 80 1013.3
20260506190418 13 345 3.2 9.7 0.00 0.00 0.00 80 1013.2
20260506185653 13 30 3.2 9.7 0.00 0.00 0.00 80 1013.2
20260506185123 13 6 3.2 8.0 0.00 0.00 0.00 80 1013.4
20260506184619 13 23 1.6 11.3 0.00 0.00 0.00 80 1013.2
20260506184120 13 10 3.2 11.3 0.00 0.00 0.00 80 1013.1
20260506183551 13 347 3.2 11.3 0.00 0.00 0.00 80 1012.8
20260506183049 13 12 4.8 16.1 0.00 0.00 0.00 80 1012.6
20260506182523 13 41 6.4 16.1 0.00 0.00 0.00 82 1012.2
20260506182022 13 25 8.0 19.3 0.00 0.00 0.00 82 1012.0
20260506181453 13 39 6.4 19.3 0.00 0.00 0.00 82 1011.7
20260506180952 13 322 8.0 16.1 0.00 0.00 0.00 82 1011.6
20260506180912 12 7 9.7 20.9 0.00 0.00 0.00 82 1011.6
20260506175857 12 328 9.7 20.9 0.00 0.00 0.00 82 1011.5
20260506175354 12 356 8.0 20.9 0.00 0.00 0.00 83 1012.0
20260506174830 12 337 6.4 19.3 0.00 0.00 0.00 83 1012.3
20260506174305 12 11 6.4 14.5 0.00 0.00 0.00 85 1012.4
20260506174004 12 356 3.2 14.5 0.00 0.00 0.00 87 1012.5
20260506173220 12 329 1.6 9.7 0.00 0.00 0.00 88 1012.9
20260506172703 12 345 3.2 14.5 0.00 0.00 0.00 88 1013.2
20260506172425 11 87 6.4 16.1 0.00 0.00 0.00 88 1013.1
20260506171701 11 63 4.8 16.1 0.00 0.00 0.00 89 1013.2
20260506171205 11 326 4.8 12.9 0.00 0.00 0.00 89 1013.3
20260506170638 11 6 6.4 22.5 0.00 0.00 0.00 89 1013.3
20260506170112 11 35 8.0 22.5 0.00 0.00 0.00 89 1012.6
20260506165609 11 342 6.4 16.1 0.00 0.00 0.00 89 1012.7
20260506165107 11 14 6.4 14.5 0.00 0.00 0.00 89 1013.0
20260506164814 11 41 4.8 12.9 0.00 0.00 0.00 89 1013.0
20260506164052 12 33 3.2 12.9 0.00 0.00 0.00 89 1013.1
20260506163529 12 5 3.2 12.9 0.00 0.00 0.00 88 1013.2
20260506162959 12 28 3.2 8.0 0.00 0.00 0.00 89 1013.3
20260506162720 12 333 1.6 8.0 0.00 0.00 0.00 89 1013.3
20260506161958 12 68 0.0 3.2 0.00 0.00 0.00 89 1013.4
20260506161451 12 66 0.0 6.4 0.00 0.00 0.00 89 1013.3
20260506160953 12 68 0.0 6.4 0.00 0.00 0.00 89 1013.3
20260506160437 12 108 0.0 4.8 0.00 0.00 0.00 89 1013.5
20260506160202 11 357 1.6 22.5 0.00 0.00 0.00 89 1013.4
20260506155417 11 11 1.6 22.5 0.00 0.00 0.00 88 1012.9
20260506154851 11 14 6.4 24.1 0.00 0.00 0.00 86 1013.5
20260506154352 11 335 8.0 24.1 0.00 0.00 0.00 85 1012.0
20260506153826 11 325 3.2 14.5 0.00 0.00 0.00 83 1013.9
20260506153528 12 349 1.6 30.6 0.00 0.00 0.00 80 1014.6
20260506152740 12 267 1.6 30.6 0.00 0.00 0.00 79 1015.0
20260506152242 12 94 3.2 9.7 0.00 0.00 0.00 78 1014.7
20260506151715 12 351 4.8 16.1 0.00 0.00 0.00 79 1014.1
20260506151157 12 52 4.8 16.1 0.00 0.00 0.00 79 1013.8
20260506150630 12 33 4.8 14.5 0.00 0.00 0.00 79 1013.4
20260506150058 12 6 6.4 16.1 0.00 0.00 0.00 78 1013.3
20260506145057 12 309 6.4 17.7 0.00 0.00 0.00 77 1012.8
20260506144556 12 18 4.8 14.5 0.00 0.00 0.00 76 1013.0
20260506144034 12 326 4.8 14.5 0.00 0.00 0.00 77 1013.6
20260506143531 12 15 4.8 14.5 0.00 0.00 0.00 77 1013.5
20260506143231 12 6 4.8 16.1 0.00 0.00 0.00 77 1013.0
20260506142445 12 334 6.4 16.1 0.00 0.00 0.00 77 1012.9
20260506141922 12 328 4.8 16.1 0.00 0.00 0.00 77 1013.0
20260506141355 12 319 4.8 12.9 0.00 0.00 0.00 77 1013.0
20260506140855 12 347 6.4 14.5 0.00 0.00 0.00 77 1012.8
20260506140350 12 315 6.4 14.5 0.00 0.00 0.00 76 1012.6
20260506135850 12 329 4.8 14.5 0.00 0.00 0.00 76 1012.4
20260506135812 12 309 4.8 14.5 0.00 0.00 0.00 77 1012.4
20260506134756 12 304 4.8 17.7 0.00 0.00 0.00 77 1012.5
20260506134230 12 332 6.4 17.7 0.00 0.00 0.00 77 1012.5
20260506133729 12 4 8.0 19.3 0.00 0.00 0.00 78 1012.3
20260506133201 12 37 8.0 19.3 0.00 0.00 0.00 78 1012.2
20260506132637 12 25 6.4 16.1 0.00 0.00 0.00 78 1012.2
20260506132401 12 315 4.8 16.1 0.00 0.00 0.00 79 1012.0
20260506131632 12 2 4.8 16.1 0.00 0.00 0.00 79 1012.0
20260506131109 12 342 4.8 16.1 0.00 0.00 0.00 79 1012.1
20260506130543 12 343 6.4 17.7 0.00 0.00 0.00 78 1012.0
20260506130026 12 330 6.4 17.7 0.00 0.00 0.00 78 1012.0
20260506125526 12 335 6.4 14.5 0.00 0.00 0.00 78 1012.0
20260506125248 12 247 6.4 14.5 0.00 0.00 0.00 77 1011.7
20260506124523 12 347 6.4 12.9 0.00 0.00 0.00 77 1011.5
20260506124024 12 20 4.8 14.5 0.00 0.00 0.00 76 1011.5
20260506123506 12 330 4.8 11.3 0.00 0.00 0.00 76 1011.5
20260506123433 12 340 4.8 16.1 0.00 0.00 0.00 76 1011.6
20260506122422 12 30 4.8 16.1 0.00 0.00 0.00 76 1011.1
20260506121920 12 16 6.4 17.7 0.00 0.00 0.00 76 1011.2
20260506121418 12 340 6.4 17.7 0.00 0.00 0.00 76 1011.4
20260506120852 12 11 8.0 22.5 0.00 0.00 0.00 75 1011.3
20260506120350 12 357 8.0 22.5 0.00 0.00 0.00 75 1011.3
20260506115849 12 307 8.0 17.7 0.00 0.00 0.00 74 1011.3
20260506115320 12 350 8.0 17.7 0.00 0.00 0.00 74 1011.0
20260506114822 12 321 8.0 22.5 0.00 0.00 0.00 74 1011.0
20260506114257 12 309 4.8 22.5 0.00 0.00 0.00 73 1010.8
20260506113751 13 28 4.8 14.5 0.00 0.00 0.00 72 1010.6
20260506113509 13 317 6.4 16.1 0.00 0.00 0.00 72 1010.5
20260506112721 13 345 6.4 17.7 0.00 0.00 0.00 72 1010.6
20260506112218 13 14 6.4 17.7 0.00 0.00 0.00 72 1010.7
20260506111706 13 316 8.0 19.3 0.00 0.00 0.00 72 1010.4
20260506111209 13 72 6.4 19.3 0.00 0.00 0.00 72 1010.4
20260506110650 13 30 6.4 16.1 0.00 0.00 0.00 71 1010.4
20260506110122 13 1 6.4 19.3 0.00 0.00 0.00 71 1010.2
20260506105559 13 16 6.4 19.3 0.00 0.00 0.00 70 1010.1
20260506105033 13 321 6.4 16.1 0.00 0.00 0.00 70 1009.9
20260506104528 13 27 6.4 16.1 0.00 0.00 0.00 70 1009.9
20260506104026 13 340 6.4 14.5 0.00 0.00 0.00 69 1009.8
20260506103502 13 27 4.8 14.5 0.00 0.00 0.00 69 1009.6
20260506103214 13 321 4.8 14.5 0.00 0.00 0.00 69 1009.5
20260506102724 13 352 4.8 14.5 0.00 0.00 0.00 69 1009.4
20260506101927 13 35 6.4 12.9 0.00 0.00 0.00 69 1009.3
20260506101401 14 9 4.8 12.9 0.00 0.00 0.00 69 1009.2
20260506100836 14 82 4.8 11.3 0.00 0.00 0.00 69 1009.1
20260506100307 14 333 4.8 12.9 0.00 0.00 0.00 69 1009.1
20260506095738 14 26 4.8 14.5 0.00 0.00 0.00 69 1009.1
20260506095458 14 96 3.2 14.5 0.00 0.00 0.00 70 1009.0
20260506094706 14 23 3.2 8.0 0.00 0.00 0.00 70 1009.0
20260506094204 14 1 4.8 11.3 0.00 0.00 0.00 69 1009.0
20260506093925 14 342 4.8 11.3 0.00 0.00 0.00 69 1009.0
20260506093203 14 324 3.2 11.3 0.00 0.00 0.00 69 1009.0
20260506092632 14 352 3.2 14.5 0.00 0.00 0.00 70 1009.1
20260506092130 14 350 4.8 14.5 0.00 0.00 0.00 69 1008.9
20260506092104 14 345 4.8 14.5 0.00 0.00 0.00 69 1008.8
20260506091557 14 347 3.2 14.5 0.00 0.00 0.00 69 1008.9
20260506090613 14 2 3.2 12.9 0.00 0.00 0.00 69 1008.8
20260506090114 14 9 4.8 12.9 0.00 0.00 0.00 69 1008.7
20260506085828 14 18 3.2 11.3 0.00 0.00 0.00 69 1008.6
20260506085058 14 338 4.8 16.1 0.00 0.00 0.00 69 1008.5
20260506084600 14 337 4.8 16.1 0.00 0.00 0.00 70 1008.5
20260506084029 14 328 4.8 12.9 0.00 0.00 0.00 69 1008.6
20260506083505 15 9 1.6 8.0 0.00 0.00 0.00 71 1008.5
20260506082940 15 14 3.2 11.3 0.00 0.00 0.00 70 1008.4
20260506082418 15 12 3.2 11.3 0.00 0.00 0.00 70 1008.1
20260506081918 15 338 3.2 11.3 0.00 0.00 0.00 70 1008.1
20260506081352 15 50 4.8 11.3 0.00 0.00 0.00 70 1008.2
20260506080846 15 356 4.8 11.3 0.00 0.00 0.00 71 1008.3
20260506080346 15 330 4.8 11.3 0.00 0.00 0.00 71 1008.3
20260506073214 15 345 3.2 12.9 0.00 0.00 0.00 71 1008.3
20260506072649 15 23 4.8 12.9 0.00 0.00 0.00 71 1008.4
20260506072128 15 356 4.8 12.9 0.00 0.00 0.00 71 1008.3
20260506071826 15 25 3.2 12.9 0.00 0.00 0.00 71 1008.4
20260506071035 15 326 3.2 12.9 0.00 0.00 0.00 71 1008.5
20260506070538 15 39 6.4 14.5 0.00 0.00 0.00 72 1008.3
20260506062314 16 359 3.2 9.7 0.00 0.00 0.00 72 1008.2
20260506061747 16 340 3.2 9.7 0.00 0.00 0.00 72 1008.3